Location: ??????
(38.0131°N, 23.7723°E)
Time: 06:06:43
(UTC+00:00)

Cosmos 1980 Rocket - Pass Details

Date: 17 October 2021
Orbit: 828 x 851 km, 71.0° (Epoch: 28 November)

Event Time Altitude Azimuth Distance (km) Brightness Sun altitude
Rises 16:58:06 0° 212° (SSW) 3,372 5.8 -15.3°
Reaches altitude 10° 17:00:34 10° 216° (SW) 2,445 5.1 -15.7°
Maximum altitude 17:06:05 57° 295° (WNW) 983 2.8 -16.8°
Drops below altitude 10° 17:11:41 10° 14° (NNE) 2,474 4.5 -17.9°
Sets 17:14:11 0° 19° (NNE) 3,416 5.2 -18.4°
